Klawock, AK

5:35 PM AKDT on May 22, 2018 (GMT -0800)
Klawock

Weather History for PAKW - February, 2013

Change the Weather History Date:

Tuesday, February 19, 2013

  Actual Average Record
Temperature  
Mean Temperature 38 °F -  
Max Temperature 43 °F 40 °F 52 °F (2016)
Min Temperature 33 °F 30 °F 21 °F (2017)
Degree Days  
Heating Degree Days 27    
Moisture  
Dew Point 35 °F    
Average Humidity 89    
Maximum Humidity 96    
Minimum Humidity 76    
Precipitation  
Precipitation 0.07 in - - ()
Sea Level Pressure  
Sea Level Pressure 29.83 in    
Wind  
Wind Speed 2 mph (SW)    
Max Wind Speed 7 mph    
Max Gust Speed -    
Visibility 10 miles    
Events Rain    
Averages and records for this station are not official NWS values.
T = Trace of Precipitation, MM = Missing Value Source: NWS Daily Summary

Daily Weather History Graph

Daily Weather History Graph

Search for Another Location

Airport or City:

Astronomy

Feb. 19, 2013 Rise Set
Actual Time 7:06 AM AKST 5:07 PM AKST
Civil Twilight 6:28 AM AKST 5:44 PM AKST
Nautical Twilight 5:45 AM AKST 6:27 PM AKST
Astronomical Twilight 5:03 AM AKST 7:10 PM AKST
Moon 11:09 AM AKST (2/19) 3:18 AM AKST (2/19)
Length of Visible Light 11h 16m
Length of Day
10h 00m
Waxing Gibbous, 69% of the Moon is Illuminated
Feb 19
Waxing Gibbous
Feb 25
Full
Mar 4
Last Quarter
Mar 11
New
Mar 19
First Quarter

Hourly Weather History & Observations

Time (AKST) Temp. Windchill Dew Point Humidity Pressure Visibility Wind Dir Wind Speed Gust Speed Precip Events Conditions
12:53 AM 36.0 °F - 34.0 °F 93% 29.84 in 10.0 mi Calm Calm - N/A   Overcast
1:53 AM 35.1 °F - 33.1 °F 92% 29.86 in 10.0 mi Calm Calm - N/A   Overcast
3:24 AM 35.6 °F - 33.8 °F 93% 29.87 in 9.0 mi Calm Calm - 0.01 in Rain Light Rain
3:53 AM 36.0 °F - 34.0 °F 93% 29.88 in 10.0 mi Calm Calm - 0.02 in Rain Light Rain
4:53 AM 35.1 °F 32.2 °F 34.0 °F 96% 29.87 in 10.0 mi NE 3.5 mph - 0.00 in   Overcast
5:45 AM 35.6 °F - 33.8 °F 93% 29.86 in 10.0 mi Calm Calm - N/A   Scattered Clouds
5:53 AM 34.0 °F - 32.0 °F 92% 29.87 in 10.0 mi Calm Calm - N/A   Partly Cloudy
6:53 AM 33.1 °F - 30.9 °F 92% 29.90 in 10.0 mi Calm Calm - N/A   Mostly Cloudy
7:53 AM 35.1 °F - 33.1 °F 92% 29.91 in 10.0 mi Calm Calm - N/A   Overcast
8:37 AM 35.6 °F 32.8 °F 33.8 °F 93% 29.89 in 10.0 mi NNE 3.5 mph - N/A   Overcast
8:50 AM 35.6 °F 32.8 °F 33.8 °F 93% 29.89 in 10.0 mi North 3.5 mph - 0.00 in Rain Light Rain
8:53 AM 36.0 °F 32.1 °F 34.0 °F 93% 29.89 in 10.0 mi North 4.6 mph - 0.00 in   Overcast
9:53 AM 39.0 °F 35.7 °F 37.0 °F 93% 29.90 in 10.0 mi NNE 4.6 mph - N/A   Overcast
10:53 AM 41.0 °F - 37.0 °F 86% 29.90 in 10.0 mi Calm Calm - N/A   Overcast
11:53 AM 43.0 °F 39.5 °F 36.0 °F 76% 29.88 in 10.0 mi Variable 5.8 mph - N/A   Overcast
12:25 PM 42.8 °F 40.1 °F 35.6 °F 76% 29.88 in 10.0 mi Variable 4.6 mph - N/A   Overcast
12:49 PM 42.8 °F 38.6 °F 37.4 °F 81% 29.88 in 8.0 mi Variable 6.9 mph - 0.01 in Rain Light Rain
12:53 PM 42.1 °F 38.4 °F 37.0 °F 82% 29.88 in 10.0 mi SSE 5.8 mph - 0.01 in   Overcast
1:22 PM 41.0 °F 39.0 °F 37.4 °F 87% 29.88 in 10.0 mi South 3.5 mph - 0.00 in Rain Light Rain
1:53 PM 41.0 °F 39.0 °F 37.0 °F 86% 29.88 in 4.0 mi SSW 3.5 mph - 0.02 in Rain Light Rain
3:30 PM 39.2 °F 35.9 °F 37.4 °F 93% 29.87 in 10.0 mi SW 4.6 mph - 0.00 in Rain Light Rain
3:53 PM 39.0 °F - 37.9 °F 96% 29.87 in 9.0 mi Calm Calm - 0.00 in Rain Light Rain
4:31 PM 39.2 °F - 37.4 °F 93% 29.85 in 10.0 mi Calm Calm - 0.00 in Rain Light Rain
4:53 PM 39.0 °F - 37.0 °F 93% 29.84 in 10.0 mi Calm Calm - 0.00 in   Overcast
5:04 PM 39.2 °F 35.9 °F 37.4 °F 93% 29.84 in 10.0 mi WSW 4.6 mph - N/A   Overcast
6:53 PM 37.9 °F - 35.1 °F 89% 29.81 in 10.0 mi Calm Calm - 0.01 in Rain Light Rain
7:12 PM 37.4 °F 34.9 °F 35.6 °F 93% 29.80 in 10.0 mi Variable 3.5 mph - 0.00 in   Mostly Cloudy
7:20 PM 37.4 °F - 35.6 °F 93% 29.79 in 10.0 mi Calm Calm - 0.00 in   Mostly Cloudy
7:53 PM 37.9 °F 35.5 °F 35.1 °F 89% 29.78 in 10.0 mi Variable 3.5 mph - 0.00 in   Mostly Cloudy
8:37 PM 39.2 °F 35.0 °F 33.8 °F 81% 29.75 in 10.0 mi Variable 5.8 mph - N/A   Overcast
8:53 PM 39.0 °F 36.8 °F 34.0 °F 82% 29.74 in 10.0 mi Variable 3.5 mph - N/A   Overcast
9:20 PM 39.2 °F 35.9 °F 33.8 °F 81% 29.72 in 10.0 mi Variable 4.6 mph - N/A   Overcast
9:53 PM 39.0 °F 34.0 °F 34.0 °F 82% 29.70 in 10.0 mi Variable 6.9 mph - N/A   Overcast
10:53 PM 37.9 °F - 35.1 °F 89% 29.69 in 10.0 mi Calm Calm - 0.00 in Rain Light Rain
11:09 PM 37.4 °F 33.8 °F 35.6 °F 93% 29.69 in 8.0 mi South 4.6 mph - 0.01 in Rain Light Rain
11:28 PM 37.4 °F 33.8 °F 35.6 °F 93% 29.67 in 10.0 mi Variable 4.6 mph - 0.01 in   Overcast
11:53 PM 39.0 °F 34.8 °F 34.0 °F 82% 29.66 in 10.0 mi Variable 5.8 mph - 0.01 in   Overcast